Time,TemperatureF,DewpointF,PressureIn,WindDirection,WindDirectionDegrees,WindSpeedMPH,WindSpeedGustMPH,Humidity,HourlyPrecipIn,Conditions,Clouds,dailyrainin,SoftwareType,DateUTC
2013-03-06 00:02:00,32.0,29.0,29.70,NE,40,6.0,11.0,87,0.00,,,0.02,,2013-03-06 05:02:00,
2013-03-06 00:11:00,33.0,29.0,29.70,ENE,75,4.0,9.0,86,0.00,,,0.02,,2013-03-06 05:11:00,
2013-03-06 00:22:00,33.0,29.0,29.70,ENE,75,4.0,9.0,86,0.00,,,0.02,,2013-03-06 05:22:00,
2013-03-06 00:32:00,33.0,29.0,29.70,North,358,0.0,6.0,85,0.00,,,0.02,,2013-03-06 05:32:00,
2013-03-06 00:42:00,33.0,29.0,29.70,North,358,0.0,6.0,85,0.00,,,0.02,,2013-03-06 05:42:00,
2013-03-06 00:52:00,33.0,29.0,29.70,ENE,64,4.0,8.0,85,0.00,,,0.02,,2013-03-06 05:52:00,
2013-03-06 01:02:00,33.0,29.0,29.70,NE,45,5.0,7.0,85,0.00,,,0.02,,2013-03-06 06:02:00,
2013-03-06 01:11:00,33.0,29.0,29.70,NE,45,5.0,7.0,85,0.00,,,0.02,,2013-03-06 06:11:00,
2013-03-06 01:22:00,33.0,29.0,29.70,NW,326,0.0,9.0,85,0.00,,,0.02,,2013-03-06 06:22:00,
2013-03-06 01:32:00,33.0,29.0,29.70,NW,315,0.0,4.0,85,0.00,,,0.02,,2013-03-06 06:32:00,
2013-03-06 01:42:00,33.0,29.0,29.70,NW,315,0.0,4.0,85,0.00,,,0.02,,2013-03-06 06:42:00,
2013-03-06 01:52:00,33.0,29.0,29.70,NNE,25,5.0,8.0,85,0.00,,,0.02,,2013-03-06 06:52:00,
2013-03-06 02:01:00,32.0,28.0,29.71,North,1,4.0,4.0,86,0.00,,,0.02,,2013-03-06 07:01:00,
2013-03-06 02:11:00,32.0,28.0,29.71,North,1,4.0,4.0,86,0.00,,,0.02,,2013-03-06 07:11:00,
2013-03-06 02:22:00,32.0,28.0,29.71,North,350,0.0,8.0,86,0.00,,,0.02,,2013-03-06 07:22:00,
2013-03-06 02:32:00,32.0,28.0,29.71,North,352,1.0,6.0,86,0.00,,,0.02,,2013-03-06 07:32:00,
2013-03-06 02:42:00,32.0,28.0,29.71,North,352,1.0,6.0,86,0.00,,,0.02,,2013-03-06 07:42:00,
2013-03-06 02:52:00,33.0,29.0,29.71,NNE,22,0.0,6.0,86,0.00,,,0.02,,2013-03-06 07:52:00,
2013-03-06 03:01:00,32.0,28.0,29.72,ENE,63,4.0,7.0,86,0.00,,,0.02,,2013-03-06 08:01:00,
2013-03-06 03:11:00,32.0,28.0,29.72,ENE,63,4.0,7.0,86,0.00,,,0.02,,2013-03-06 08:11:00,
2013-03-06 03:21:00,32.0,28.0,29.72,NE,46,0.0,4.0,86,0.00,,,0.02,,2013-03-06 08:21:00,
2013-03-06 03:32:00,33.0,30.0,29.72,NNE,16,0.0,0.0,87,0.00,,,0.02,,2013-03-06 08:32:00,
2013-03-06 03:42:00,33.0,30.0,29.72,NNE,16,0.0,0.0,87,0.00,,,0.02,,2013-03-06 08:42:00,
2013-03-06 03:52:00,33.0,30.0,29.73,North,358,0.0,0.0,87,0.00,,,0.02,,2013-03-06 08:52:00,
2013-03-06 04:01:00,33.0,30.0,29.74,NE,35,0.0,0.0,88,0.00,,,0.02,,2013-03-06 09:01:00,
2013-03-06 04:12:00,33.0,30.0,29.74,NE,35,0.0,0.0,88,0.00,,,0.02,,2013-03-06 09:12:00,
2013-03-06 04:21:00,33.0,30.0,29.74,North,1,0.0,6.0,88,0.00,,,0.02,,2013-03-06 09:21:00,
2013-03-06 04:32:00,33.0,30.0,29.75,NE,39,0.0,3.0,88,0.00,,,0.02,,2013-03-06 09:32:00,
2013-03-06 04:42:00,33.0,30.0,29.75,NE,39,0.0,3.0,88,0.00,,,0.02,,2013-03-06 09:42:00,
2013-03-06 04:52:00,33.0,30.0,29.76,ENE,60,0.0,8.0,88,0.00,,,0.02,,2013-03-06 09:52:00,
2013-03-06 05:01:00,33.0,30.0,29.78,NNE,30,0.0,0.0,88,0.00,,,0.02,,2013-03-06 10:01:00,
2013-03-06 05:11:00,33.0,30.0,29.78,NNE,30,0.0,0.0,88,0.00,,,0.02,,2013-03-06 10:11:00,
2013-03-06 05:22:00,33.0,30.0,29.78,NNE,32,2.0,5.0,89,0.00,,,0.02,,2013-03-06 10:22:00,
2013-03-06 05:32:00,33.0,30.0,29.79,NE,47,0.0,0.0,89,0.00,,,0.02,,2013-03-06 10:32:00,
2013-03-06 05:42:00,33.0,30.0,29.79,NE,47,0.0,0.0,89,0.00,,,0.02,,2013-03-06 10:42:00,
2013-03-06 05:52:00,33.0,30.0,29.80,NNE,33,3.0,3.0,89,0.00,,,0.02,,2013-03-06 10:52:00,
2013-03-06 06:02:00,33.0,30.0,29.81,ENE,61,0.0,5.0,90,0.00,,,0.02,,2013-03-06 11:02:00,
2013-03-06 06:11:00,33.0,30.0,29.81,ENE,61,0.0,5.0,90,0.00,,,0.02,,2013-03-06 11:11:00,
2013-03-06 06:22:00,33.0,30.0,29.82,NNE,23,0.0,3.0,90,0.00,,,0.02,,2013-03-06 11:22:00,
2013-03-06 06:32:00,33.0,30.0,29.83,NE,40,0.0,0.0,90,0.00,,,0.02,,2013-03-06 11:32:00,
2013-03-06 06:42:00,33.0,30.0,29.83,NE,40,0.0,0.0,90,0.00,,,0.02,,2013-03-06 11:42:00,
2013-03-06 06:52:00,33.0,30.0,29.85,NE,40,0.0,0.0,90,0.00,,,0.02,,2013-03-06 11:52:00,
2013-03-06 07:02:00,33.0,31.0,29.86,NE,40,0.0,0.0,91,0.00,,,0.02,,2013-03-06 12:02:00,
2013-03-06 07:11:00,33.0,31.0,29.86,NE,40,0.0,0.0,91,0.00,,,0.02,,2013-03-06 12:11:00,
2013-03-06 07:22:00,32.0,30.0,29.87,NW,306,0.0,3.0,91,0.00,,,0.02,,2013-03-06 12:22:00,
2013-03-06 07:33:00,32.0,30.0,29.88,North,4,0.0,5.0,92,0.00,,,0.02,,2013-03-06 12:33:00,
2013-03-06 07:42:00,32.0,30.0,29.88,North,4,0.0,5.0,92,0.00,,,0.02,,2013-03-06 12:42:00,
2013-03-06 07:53:00,32.0,30.0,29.88,North,4,0.0,0.0,92,0.00,,,0.02,,2013-03-06 12:53:00,
2013-03-06 08:02:00,32.0,30.0,29.91,North,4,0.0,0.0,92,0.00,,,0.02,,2013-03-06 13:02:00,
2013-03-06 08:12:00,32.0,30.0,29.91,North,4,0.0,0.0,92,0.00,,,0.02,,2013-03-06 13:12:00,
2013-03-06 08:22:00,32.0,30.0,29.91,North,4,0.0,0.0,93,0.00,,,0.02,,2013-03-06 13:22:00,
2013-03-06 08:32:00,32.0,30.0,29.92,North,354,0.0,4.0,93,0.00,,,0.02,,2013-03-06 13:32:00,
2013-03-06 08:42:00,32.0,30.0,29.92,North,354,0.0,4.0,93,0.00,,,0.02,,2013-03-06 13:42:00,
2013-03-06 08:52:00,32.0,30.0,29.93,North,354,0.0,0.0,94,0.00,,,0.02,,2013-03-06 13:52:00,
2013-03-06 09:01:00,33.0,31.0,29.95,NNW,347,0.0,3.0,92,0.00,,,0.02,,2013-03-06 14:01:00,
2013-03-06 09:11:00,33.0,31.0,29.95,NNW,347,0.0,3.0,92,0.00,,,0.02,,2013-03-06 14:11:00,
2013-03-06 09:22:00,34.0,32.0,29.95,NNE,25,0.0,0.0,91,0.00,,,0.02,,2013-03-06 14:22:00,
2013-03-06 09:32:00,34.0,31.0,29.96,North,352,0.0,5.0,88,0.00,,,0.02,,2013-03-06 14:32:00,
2013-03-06 09:42:00,35.0,32.0,29.96,North,4,0.0,2.0,87,0.00,,,0.02,,2013-03-06 14:42:00,
2013-03-06 09:53:00,35.0,32.0,29.96,North,4,0.0,2.0,87,0.00,,,0.02,,2013-03-06 14:53:00,
2013-03-06 10:02:00,36.0,31.0,29.97,North,2,3.0,3.0,82,0.00,,,0.02,,2013-03-06 15:02:00,
2013-03-06 10:11:00,36.0,31.0,29.97,North,2,3.0,3.0,82,0.00,,,0.02,,2013-03-06 15:11:00,
2013-03-06 10:22:00,38.0,33.0,29.98,North,4,0.0,6.0,81,0.00,,,0.01,,2013-03-06 15:22:00,
2013-03-06 10:32:00,38.0,31.0,29.98,NNE,21,0.0,6.0,77,0.00,,,0.01,,2013-03-06 15:32:00,
2013-03-06 10:42:00,38.0,31.0,29.98,NNE,21,0.0,6.0,77,0.00,,,0.01,,2013-03-06 15:42:00,
2013-03-06 10:52:00,38.0,31.0,29.99,NNE,12,0.0,4.0,76,0.00,,,0.01,,2013-03-06 15:52:00,
2013-03-06 11:02:00,40.0,32.0,30.00,North,358,0.0,5.0,74,0.00,,,0.01,,2013-03-06 16:02:00,
2013-03-06 11:12:00,40.0,32.0,30.00,North,358,0.0,5.0,74,0.00,,,0.01,,2013-03-06 16:12:00,
2013-03-06 11:21:00,40.0,32.0,30.01,NNE,33,7.0,7.0,73,0.00,,,0.00,,2013-03-06 16:21:00,
2013-03-06 11:32:00,41.0,33.0,30.01,ENE,61,5.0,8.0,72,0.00,,,0.00,,2013-03-06 16:32:00,
2013-03-06 11:42:00,41.0,33.0,30.01,ENE,61,5.0,8.0,72,0.00,,,0.00,,2013-03-06 16:42:00,
2013-03-06 11:52:00,41.0,32.0,30.01,East,84,0.0,0.0,70,0.00,,,0.00,,2013-03-06 16:52:00,
2013-03-06 12:01:00,41.0,32.0,30.02,NE,39,0.0,4.0,69,0.00,,,0.00,,2013-03-06 17:01:00,
2013-03-06 12:11:00,41.0,32.0,30.02,NE,39,0.0,4.0,69,0.00,,,0.00,,2013-03-06 17:11:00,
2013-03-06 12:22:00,41.0,32.0,30.02,NE,39,0.0,0.0,69,0.00,,,0.00,,2013-03-06 17:22:00,
2013-03-06 12:32:00,41.0,32.0,30.02,NE,39,0.0,0.0,69,0.00,,,0.00,,2013-03-06 17:32:00,
2013-03-06 12:42:00,41.0,32.0,30.02,NE,39,0.0,0.0,69,0.00,,,0.00,,2013-03-06 17:42:00,
2013-03-06 12:53:00,42.0,32.0,30.02,East,80,2.0,7.0,68,0.00,,,0.00,,2013-03-06 17:53:00,
2013-03-06 13:02:00,42.0,32.0,30.03,NNW,348,0.0,0.0,67,0.00,,,0.00,,2013-03-06 18:02:00,
2013-03-06 13:28:00,42.0,32.0,30.02,NNE,12,0.0,0.0,67,0.00,,,0.00,,2013-03-06 18:28:00,
2013-03-06 13:42:00,44.0,33.0,30.03,NNE,22,0.0,5.0,65,0.00,,,0.00,,2013-03-06 18:42:00,
2013-03-06 13:53:00,43.0,32.0,30.03,West,281,0.0,0.0,66,0.00,,,0.00,,2013-03-06 18:53:00,
2013-03-06 14:02:00,44.0,34.0,30.02,West,272,0.0,0.0,67,0.00,,,0.00,,2013-03-06 19:02:00,
2013-03-06 14:11:00,44.0,34.0,30.02,West,272,0.0,0.0,67,0.00,,,0.00,,2013-03-06 19:11:00,
2013-03-06 14:22:00,43.0,32.0,30.02,ENE,74,0.0,0.0,65,0.00,,,0.00,,2013-03-06 19:22:00,
2013-03-06 14:32:00,42.0,31.0,30.03,ENE,74,0.0,0.0,65,0.00,,,0.00,,2013-03-06 19:32:00,
2013-03-06 14:43:00,42.0,31.0,30.03,ENE,74,0.0,0.0,65,0.00,,,0.00,,2013-03-06 19:43:00,
2013-03-06 14:53:00,42.0,31.0,30.03,ENE,71,0.0,3.0,65,0.00,,,0.00,,2013-03-06 19:53:00,
2013-03-06 15:02:00,42.0,32.0,30.05,North,350,0.0,0.0,68,0.00,,,0.00,,2013-03-06 20:02:00,
2013-03-06 15:12:00,42.0,32.0,30.05,North,350,0.0,0.0,68,0.00,,,0.00,,2013-03-06 20:12:00,
2013-03-06 15:22:00,41.0,32.0,30.05,SSW,209,0.0,3.0,69,0.00,,,0.00,,2013-03-06 20:22:00,
2013-03-06 15:32:00,41.0,32.0,30.05,NW,313,0.0,0.0,70,0.00,,,0.00,,2013-03-06 20:32:00,
2013-03-06 15:42:00,41.0,32.0,30.05,NW,313,0.0,0.0,70,0.00,,,0.00,,2013-03-06 20:42:00,
2013-03-06 15:53:00,41.0,33.0,30.06,NE,42,0.0,5.0,72,0.00,,,0.00,,2013-03-06 20:53:00,
2013-03-06 16:02:00,40.0,32.0,30.07,NW,316,0.0,0.0,73,0.00,,,0.00,,2013-03-06 21:02:00,
2013-03-06 16:12:00,40.0,32.0,30.07,NW,316,0.0,0.0,73,0.00,,,0.00,,2013-03-06 21:12:00,
2013-03-06 16:22:00,41.0,33.0,30.06,NNW,336,0.0,7.0,72,0.00,,,0.00,,2013-03-06 21:22:00,
2013-03-06 16:32:00,42.0,33.0,30.07,West,261,0.0,6.0,71,0.00,,,0.00,,2013-03-06 21:32:00,
2013-03-06 16:42:00,42.0,33.0,30.07,West,261,0.0,6.0,71,0.00,,,0.00,,2013-03-06 21:42:00,
2013-03-06 16:52:00,42.0,33.0,30.07,West,261,0.0,6.0,71,0.00,,,0.00,,2013-03-06 21:52:00,
2013-03-06 17:02:00,40.0,31.0,30.07,North,9,0.0,5.0,69,0.00,,,0.00,,2013-03-06 22:02:00,
2013-03-06 17:11:00,40.0,31.0,30.07,North,9,0.0,5.0,69,0.00,,,0.00,,2013-03-06 22:11:00,
2013-03-06 17:22:00,40.0,31.0,30.08,North,358,0.0,5.0,71,0.00,,,0.00,,2013-03-06 22:22:00,
2013-03-06 17:32:00,39.0,31.0,30.08,NNE,16,0.0,0.0,73,0.00,,,0.00,,2013-03-06 22:32:00,
2013-03-06 17:42:00,39.0,31.0,30.08,NNE,16,0.0,0.0,73,0.00,,,0.00,,2013-03-06 22:42:00,
2013-03-06 17:52:00,39.0,32.0,30.09,NNE,16,0.0,0.0,75,0.00,,,0.00,,2013-03-06 22:52:00,
2013-03-06 18:01:00,37.0,31.0,30.09,NNE,14,0.0,0.0,78,0.00,,,0.00,,2013-03-06 23:01:00,
2013-03-06 18:11:00,37.0,31.0,30.09,NNE,14,0.0,0.0,78,0.00,,,0.00,,2013-03-06 23:11:00,
2013-03-06 18:21:00,36.0,30.0,30.10,NNE,14,0.0,0.0,80,0.00,,,0.00,,2013-03-06 23:21:00,
2013-03-06 18:32:00,36.0,31.0,30.10,NNE,14,0.0,0.0,82,0.00,,,0.00,,2013-03-06 23:32:00,
2013-03-06 18:42:00,35.0,31.0,30.11,NNE,14,0.0,0.0,84,0.00,,,0.00,,2013-03-06 23:42:00,
2013-03-06 18:52:00,35.0,31.0,30.11,NNE,14,0.0,0.0,84,0.00,,,0.00,,2013-03-06 23:52:00,
2013-03-06 19:02:00,34.0,30.0,30.13,NNE,14,0.0,0.0,86,0.00,,,0.00,,2013-03-07 00:02:00,
2013-03-06 19:11:00,34.0,30.0,30.13,NNE,14,0.0,0.0,86,0.00,,,0.00,,2013-03-07 00:11:00,
2013-03-06 19:21:00,33.0,30.0,30.14,NNE,14,0.0,0.0,88,0.00,,,0.00,,2013-03-07 00:21:00,
2013-03-06 19:32:00,33.0,30.0,30.14,NNE,14,0.0,0.0,90,0.00,,,0.00,,2013-03-07 00:32:00,
2013-03-06 19:42:00,33.0,30.0,30.14,NNE,14,0.0,0.0,90,0.00,,,0.00,,2013-03-07 00:42:00,
2013-03-06 19:52:00,32.0,30.0,30.14,NNE,14,0.0,0.0,92,0.00,,,0.00,,2013-03-07 00:52:00,
2013-03-06 20:01:00,32.0,31.0,30.15,NNE,14,0.0,0.0,95,0.00,,,0.00,,2013-03-07 01:01:00,
2013-03-06 20:11:00,32.0,31.0,30.15,NNE,14,0.0,0.0,95,0.00,,,0.00,,2013-03-07 01:11:00,
2013-03-06 20:21:00,31.0,30.0,30.15,NNE,14,0.0,0.0,96,0.00,,,0.00,,2013-03-07 01:21:00,
2013-03-06 20:32:00,31.0,30.0,30.15,NNE,14,0.0,0.0,96,0.00,,,0.00,,2013-03-07 01:32:00,
2013-03-06 20:42:00,31.0,30.0,30.15,NNE,14,0.0,0.0,96,0.00,,,0.00,,2013-03-07 01:42:00,
2013-03-06 20:52:00,31.0,31.0,30.15,NNE,14,0.0,0.0,98,0.00,,,0.00,,2013-03-07 01:52:00,
2013-03-06 21:01:00,31.0,31.0,30.15,NNE,14,0.0,0.0,99,0.00,,,0.00,,2013-03-07 02:01:00,
2013-03-06 21:11:00,31.0,31.0,30.15,NNE,14,0.0,0.0,99,0.00,,,0.00,,2013-03-07 02:11:00,
2013-03-06 21:21:00,32.0,32.0,30.16,NNE,14,0.0,0.0,99,0.00,,,0.00,,2013-03-07 02:21:00,
2013-03-06 21:32:00,32.0,32.0,30.16,NNE,14,0.0,0.0,99,0.00,,,0.00,,2013-03-07 02:32:00,
2013-03-06 21:41:00,32.0,32.0,30.16,NNE,14,0.0,0.0,99,0.00,,,0.00,,2013-03-07 02:41:00,
2013-03-06 21:52:00,32.0,32.0,30.16,NNE,14,0.0,0.0,99,0.00,,,0.00,,2013-03-07 02:52:00,
2013-03-06 22:02:00,32.0,32.0,30.16,NNE,14,0.0,0.0,99,0.00,,,0.00,,2013-03-07 03:02:00,
2013-03-06 22:12:00,32.0,32.0,30.17,NNE,14,0.0,0.0,99,0.00,,,0.00,,2013-03-07 03:12:00,
2013-03-06 22:22:00,32.0,32.0,30.17,NNE,14,0.0,0.0,99,0.00,,,0.00,,2013-03-07 03:22:00,
2013-03-06 22:32:00,32.0,32.0,30.16,NNE,14,0.0,0.0,99,0.00,,,0.00,,2013-03-07 03:32:00,
2013-03-06 22:42:00,32.0,32.0,30.16,NNE,14,0.0,0.0,99,0.00,,,0.00,,2013-03-07 03:42:00,
2013-03-06 22:52:00,32.0,32.0,30.16,NNE,14,0.0,0.0,99,0.00,,,0.00,,2013-03-07 03:52:00,
2013-03-06 23:01:00,32.0,32.0,30.17,NNE,14,0.0,0.0,99,0.00,,,0.00,,2013-03-07 04:01:00,
2013-03-06 23:11:00,32.0,32.0,30.17,NNE,14,0.0,0.0,99,0.00,,,0.00,,2013-03-07 04:11:00,
2013-03-06 23:22:00,32.0,32.0,30.17,NNE,14,0.0,0.0,99,0.00,,,0.00,,2013-03-07 04:22:00,
2013-03-06 23:32:00,32.0,32.0,30.17,NNE,14,0.0,0.0,99,0.00,,,0.00,,2013-03-07 04:32:00,
2013-03-06 23:42:00,32.0,32.0,30.17,NNE,14,0.0,0.0,99,0.00,,,0.00,,2013-03-07 04:42:00,
2013-03-06 23:52:00,32.0,32.0,30.17,NNE,14,0.0,0.0,99,0.00,,,0.00,,2013-03-07 04:52:00,